This is the latest recevied weather packets stored in our database for station/object G4WLC-1. If no packets are shown the sender has not sent any weather packets the latest 10 day(s).
| Time | Temp. | Humidity | Pressure | Rain* | Wind** | Luminosity | Snow |
|---|---|---|---|---|---|---|---|
| 1777726992 | 16.11° C | 70% | 1014.9 hPa | 0 mm | - | - | - |
| 1777726692 | 16.11° C | 71% | 1014.9 hPa | 0 mm | - | - | - |
| 1777726392 | 16.67° C | 68% | 1014.9 hPa | 0 mm | - | - | - |
| 1777726092 | 16.67° C | 64% | 1014.9 hPa | 0 mm | - | - | - |
| 1777725792 | 17.22° C | 68% | 1015.2 hPa | 0 mm | - | - | - |
| 1777725492 | 17.22° C | 68% | 1015.2 hPa | 0 mm | - | - | - |
| 1777725192 | 16.67° C | 69% | 1015.2 hPa | 0 mm | - | - | - |
| 1777724892 | 17.22° C | 67% | 1015.2 hPa | 0 mm | - | - | - |
| 1777724592 | 16.67° C | 65% | 1015.4 hPa | 0 mm | - | - | - |
| 1777724292 | 16.67° C | 67% | 1015.6 hPa | 0 mm | - | - | - |
| 1777723992 | 16.67° C | 65% | 1015.5 hPa | 0 mm | - | - | - |
| 1777723692 | 16.67° C | 66% | 1015.8 hPa | 0 mm | - | - | - |
| 1777723392 | 16.11° C | 69% | 1015.7 hPa | 0 mm | - | - | - |
| 1777723092 | 16.11° C | 72% | 1015.8 hPa | 0 mm | - | - | - |
| 1777722792 | 16.11° C | 68% | 1016 hPa | 0 mm | - | - | - |
| 1777722492 | 16.11° C | 69% | 1016.1 hPa | 0 mm | - | - | - |
| 1777722192 | 16.11° C | 67% | 1016 hPa | 0 mm | - | - | - |
| 1777721892 | 16.11° C | 67% | 1016.1 hPa | 0 mm | - | - | - |
| 1777721592 | 16.11° C | 68% | 1016.2 hPa | 0 mm | - | - | - |
| 1777721292 | 15.56° C | 71% | 1016.3 hPa | 0 mm | - | - | - |
| 1777720992 | 15.56° C | 69% | 1016.4 hPa | 0 mm | - | - | - |
| 1777720692 | 15° C | 70% | 1016.4 hPa | 0 mm | - | - | - |
| 1777720392 | 15° C | 68% | 1016.4 hPa | 0 mm | - | - | - |
| 1777720092 | 15° C | 71% | 1016.5 hPa | 0 mm | - | - | - |
| 1777719792 | 15° C | 75% | 1016.6 hPa | 0 mm | - | - | - |
* Rain latest hour (hover to see other rain measurements)
** Current wind speed in m/s (hover to see current wind gust speed)